Flag for Paraguay Weather past 2 weeks in Ciudad del Este, Paraguay

Now
72 °F

Broken clouds.


Feels Like: 67 °F
Forecast: 67 / 74 °F
Wind: 2 mph from Southeast

Location: Foz Do Iguacu Aeroporto

Current Time: Mar 29, 2015 at 8:36:54 AM

Latest Report: Mar 29, 2015 at 8:00 AM


Visibility: N/A

Pressure: 30.01 "Hg

Humidity: 94%

Dew point: 70 °F

Location of Ciudad del EsteLocation

Historic Weather in Ciudad del Este — Graph

°F

Ciudad del Este temperature yesterday

Maximum temperature yesterday: 81 °F (at 2:00 PM)
Minimum temperature yesterday: 68 °F (at 2:00 AM)
Average temperature yesterday: 72 °F

Past Weeks' High & Low Weather Summary

 TemperatureHumidityPressure
High91 °F (Mar 16, 2:00 PM)100% (Mar 16, 1:00 AM)30.09 "Hg (Mar 16, 1:00 AM)
Low55 °F (Mar 23, 5:00 AM)41% (Mar 14, 4:00 PM)29.80 "Hg (Mar 14, 5:00 PM)
Average76 °F81%29.95 "Hg
* Reported Mar 14 8:00 AM — Mar 29 7:00 AM, Ciudad del Este, Weather by CustomWeather, © 2015

Note: Actual official high and low records may vary slightly from our data, if they occured in-between our weather recording intervals... More about our weather records

Advertising

Ciudad del Este weather history for previous 24 hours

 ConditionsComfort  
Time TempWeatherWind HumidityBarometerVisibility
7:00 AM
Sun, Mar 29
70 °FBroken clouds.6 mph100%30.01 "HgN/A
6:00 AM70 °FBroken clouds.2 mph94%30.01 "HgN/A
5:00 AM70 °FLight rain. Broken clouds.3 mph94%29.98 "Hg5 mi
4:00 AM70 °FPassing clouds.No wind94%29.98 "HgN/A
3:00 AM70 °FPassing clouds.2 mph94%29.95 "HgN/A
2:00 AM70 °FPassing clouds.No wind94%29.98 "HgN/A
1:00 AM70 °FClear.2 mph94%29.98 "Hg10 mi
12:00 AM70 °FClear.3 mph94%29.98 "Hg10 mi
11:00 PM
Sat, Mar 28
70 °FClear.2 mph100%30.01 "Hg10 mi
10:00 PM70 °FFog.3 mph100%30.04 "Hg1 mi
9:00 PM72 °FPassing clouds.No wind94%30.04 "HgN/A
8:00 PM72 °FPassing clouds.No wind94%30.01 "HgN/A
7:00 PM72 °FPassing clouds.3 mph100%30.01 "HgN/A
6:00 PM72 °FLight rain. Fog.3 mph100%30.01 "Hg3 mi
5:00 PM73 °FPartly cloudy.5 mph94%30.01 "Hg5 mi
4:00 PM75 °FThundershowers. Broken clouds.6 mph83%N/AN/A
3:00 PM79 °FScattered showers. Scattered clouds.2 mph84%N/AN/A
2:00 PM81 °FPartly sunny.3 mph79%30.01 "HgN/A
1:00 PM79 °FPartly sunny.5 mph84%30.01 "HgN/A
12:00 PM77 °FPartly sunny.3 mph83%30.04 "HgN/A
11:00 AM75 °FPartly sunny.5 mph89%30.07 "HgN/A
10:00 AM73 °FMostly cloudy.2 mph94%30.09 "HgN/A
9:00 AM72 °FLow clouds.3 mph94%30.09 "Hg5 mi
8:00 AM72 °FFog.No wind94%30.07 "Hg2 mi
Weather by CustomWeather, © 2015

See weather overviewHow to use our weather pages